"Time","Value","Approval","myLocation"
"2023-03-29 00:00",7.84212958604458,"Approved","OW473"
"2023-03-29 01:00",7.85012667866537,"Approved","OW473"
"2023-03-29 02:00",7.84512377128617,"Approved","OW473"
"2023-03-29 03:00",7.83012086390696,"Approved","OW473"
"2023-03-29 04:00",7.80911795652776,"Approved","OW473"
"2023-03-29 05:00",7.78211504914855,"Approved","OW473"
"2023-03-29 06:00",7.75411214176935,"Approved","OW473"
"2023-03-29 07:00",7.72910923439014,"Approved","OW473"
"2023-03-29 08:00",7.71110632701094,"Approved","OW473"
"2023-03-29 09:00",7.70110341963173,"Approved","OW473"
"2023-03-29 10:00",7.69810051225253,"Approved","OW473"
"2023-03-29 11:00",7.70309760487332,"Approved","OW473"
"2023-03-29 12:00",7.71109469749412,"Approved","OW473"
"2023-03-29 13:00",7.72209179011491,"Approved","OW473"
"2023-03-29 14:00",7.73008888273571,"Approved","OW473"
"2023-03-29 15:00",7.7350859753565,"Approved","OW473"
"2023-03-29 16:00",7.7370830679773,"Approved","OW473"
"2023-03-29 17:00",7.73908016059809,"Approved","OW473"
"2023-03-29 18:00",7.74307725321888,"Approved","OW473"
"2023-03-29 19:00",7.74907434583968,"Approved","OW473"
"2023-03-29 20:00",7.75907143846047,"Approved","OW473"
"2023-03-29 21:00",7.77706853108127,"Approved","OW473"
"2023-03-29 22:00",7.79706562370206,"Approved","OW473"
"2023-03-29 23:00",7.82006271632286,"Approved","OW473"
"2023-03-30 00:00",7.84005980894365,"Approved","OW473"
"2023-03-30 01:00",7.85605690156445,"Approved","OW473"
"2023-03-30 02:00",7.86205399418524,"Approved","OW473"
"2023-03-30 03:00",7.85905108680604,"Approved","OW473"
"2023-03-30 04:00",7.84804817942683,"Approved","OW473"
"2023-03-30 05:00",7.82704527204763,"Approved","OW473"
"2023-03-30 06:00",7.80104236466842,"Approved","OW473"
"2023-03-30 07:00",7.77303945728922,"Approved","OW473"
"2023-03-30 08:00",7.74803654991001,"Approved","OW473"
"2023-03-30 09:00",7.7280336425308,"Approved","OW473"
"2023-03-30 10:00",7.7160307351516,"Approved","OW473"
"2023-03-30 11:00",7.71502782777239,"Approved","OW473"
"2023-03-30 12:00",7.72002492039319,"Approved","OW473"
"2023-03-30 13:00",7.73102201301398,"Approved","OW473"
"2023-03-30 14:00",7.74301910563478,"Approved","OW473"
"2023-03-30 15:00",7.75501619825557,"Approved","OW473"
"2023-03-30 16:00",7.76501329087637,"Approved","OW473"
"2023-03-30 17:00",7.77001038349716,"Approved","OW473"
"2023-03-30 18:00",7.77500747611796,"Approved","OW473"
"2023-03-30 19:00",7.77700456873875,"Approved","OW473"
"2023-03-30 20:00",7.78200166135955,"Approved","OW473"
"2023-03-30 21:00",7.79099875398034,"Approved","OW473"
"2023-03-30 22:00",7.80599584660114,"Approved","OW473"
"2023-03-30 23:00",7.82399293922193,"Approved","OW473"
"2023-03-31 00:00",7.84599003184273,"Approved","OW473"
"2023-03-31 01:00",7.86798712446352,"Approved","OW473"
"2023-03-31 02:00",7.88598421708431,"Approved","OW473"
"2023-03-31 03:00",7.89798130970511,"Approved","OW473"
"2023-03-31 04:00",7.8999784023259,"Approved","OW473"
"2023-03-31 05:00",7.8899754949467,"Approved","OW473"
"2023-03-31 06:00",7.87097258756749,"Approved","OW473"
"2023-03-31 07:00",7.84596968018829,"Approved","OW473"
"2023-03-31 08:00",7.81796677280908,"Approved","OW473"
"2023-03-31 09:00",7.79296386542988,"Approved","OW473"
"2023-03-31 10:00",7.77296095805067,"Approved","OW473"
"2023-03-31 11:00",7.76195805067147,"Approved","OW473"
"2023-03-31 12:00",7.76195514329226,"Approved","OW473"
"2023-03-31 13:00",7.76895223591306,"Approved","OW473"
"2023-03-31 14:00",7.78294932853385,"Approved","OW473"
"2023-03-31 15:00",7.79794642115464,"Approved","OW473"
"2023-03-31 16:00",7.81094351377544,"Approved","OW473"
"2023-03-31 17:00",7.82094060639623,"Approved","OW473"
"2023-03-31 18:00",7.82593769901703,"Approved","OW473"
"2023-03-31 19:00",7.82693479163782,"Approved","OW473"
"2023-03-31 20:00",7.82493188425862,"Approved","OW473"
"2023-03-31 21:00",7.82492897687941,"Approved","OW473"
"2023-03-31 22:00",7.82892606950021,"Approved","OW473"
"2023-03-31 23:00",7.837923162121,"Approved","OW473"
"2023-04-01 00:00",7.8529202547418,"Approved","OW473"
"2023-04-01 01:00",7.87091734736259,"Approved","OW473"
"2023-04-01 02:00",7.89091443998339,"Approved","OW473"
"2023-04-01 03:00",7.90791153260418,"Approved","OW473"
"2023-04-01 04:00",7.91690862522498,"Approved","OW473"
"2023-04-01 05:00",7.91390571784577,"Approved","OW473"
"2023-04-01 06:00",7.90190281046657,"Approved","OW473"
"2023-04-01 07:00",7.88089990308736,"Approved","OW473"
"2023-04-01 08:00",7.85489699570815,"Approved","OW473"
"2023-04-01 09:00",7.82689408832895,"Approved","OW473"
"2023-04-01 10:00",7.80089118094974,"Approved","OW473"
"2023-04-01 11:00",7.78388827357054,"Approved","OW473"
"2023-04-01 12:00",7.77788536619133,"Approved","OW473"
"2023-04-01 13:00",7.78288245881213,"Approved","OW473"
"2023-04-01 14:00",7.79487955143292,"Approved","OW473"
"2023-04-01 15:00",7.81387664405372,"Approved","OW473"
"2023-04-01 16:00",7.83287373667451,"Approved","OW473"
"2023-04-01 17:00",7.84787082929531,"Approved","OW473"
"2023-04-01 18:00",7.8578679219161,"Approved","OW473"
"2023-04-01 19:00",7.8598650145369,"Approved","OW473"
"2023-04-01 20:00",7.85586210715769,"Approved","OW473"
"2023-04-01 21:00",7.85085919977849,"Approved","OW473"
"2023-04-01 22:00",7.84585629239928,"Approved","OW473"
"2023-04-01 23:00",7.84885338502007,"Approved","OW473"
"2023-04-02 00:00",7.85985047764087,"Approved","OW473"
"2023-04-02 01:00",7.87884757026166,"Approved","OW473"
"2023-04-02 02:00",7.90284466288246,"Approved","OW473"
"2023-04-02 03:00",7.92984175550325,"Approved","OW473"
"2023-04-02 04:00",7.95183884812405,"Approved","OW473"
"2023-04-02 05:00",7.96483594074484,"Approved","OW473"
"2023-04-02 06:00",7.96383303336564,"Approved","OW473"
"2023-04-02 07:00",7.94883012598643,"Approved","OW473"
"2023-04-02 08:00",7.92582721860723,"Approved","OW473"
"2023-04-02 09:00",7.89482431122802,"Approved","OW473"
"2023-04-02 10:00",7.86382140384882,"Approved","OW473"
"2023-04-02 11:00",7.83881849646961,"Approved","OW473"
"2023-04-02 12:00",7.82281558909041,"Approved","OW473"
"2023-04-02 13:00",7.8218126817112,"Approved","OW473"
"2023-04-02 14:00",7.83080977433199,"Approved","OW473"
"2023-04-02 15:00",7.84880686695279,"Approved","OW473"
"2023-04-02 16:00",7.86980395957359,"Approved","OW473"
"2023-04-02 17:00",7.88880105219438,"Approved","OW473"
"2023-04-02 18:00",7.90279814481517,"Approved","OW473"
"2023-04-02 19:00",7.90779523743597,"Approved","OW473"
"2023-04-02 20:00",7.90179233005676,"Approved","OW473"
"2023-04-02 21:00",7.89078942267756,"Approved","OW473"
"2023-04-02 22:00",7.87978651529835,"Approved","OW473"
"2023-04-02 23:00",7.87278360791915,"Approved","OW473"
"2023-04-03 00:00",7.87578070053994,"Approved","OW473"
"2023-04-03 01:00",7.88877779316074,"Approved","OW473"
"2023-04-03 02:00",7.90977488578153,"Approved","OW473"
"2023-04-03 03:00",7.93777197840233,"Approved","OW473"
"2023-04-03 04:00",7.96676907102312,"Approved","OW473"
"2023-04-03 05:00",7.98876616364392,"Approved","OW473"
"2023-04-03 06:00",7.99876325626471,"Approved","OW473"
"2023-04-03 07:00",7.9937603488855,"Approved","OW473"
"2023-04-03 08:00",7.9757574415063,"Approved","OW473"
"2023-04-03 09:00",7.94875453412709,"Approved","OW473"
"2023-04-03 10:00",7.91775162674789,"Approved","OW473"
"2023-04-03 11:00",7.88974871936868,"Approved","OW473"
"2023-04-03 12:00",7.87074581198948,"Approved","OW473"
"2023-04-03 13:00",7.86574290461027,"Approved","OW473"
"2023-04-03 14:00",7.87273999723107,"Approved","OW473"
"2023-04-03 15:00",7.89073708985186,"Approved","OW473"
"2023-04-03 16:00",7.91573418247266,"Approved","OW473"
"2023-04-03 17:00",7.94073127509345,"Approved","OW473"
"2023-04-03 18:00",7.96072836771425,"Approved","OW473"
"2023-04-03 19:00",7.96972546033504,"Approved","OW473"
"2023-04-03 20:00",7.96472255295584,"Approved","OW473"
"2023-04-03 21:00",7.95171964557663,"Approved","OW473"
"2023-04-03 22:00",7.93371673819743,"Approved","OW473"
"2023-04-03 23:00",7.91671383081822,"Approved","OW473"
"2023-04-04 00:00",7.90671092343901,"Approved","OW473"
"2023-04-04 01:00",7.90870801605981,"Approved","OW473"
"2023-04-04 02:00",7.9247051086806,"Approved","OW473"
"2023-04-04 03:00",7.9467022013014,"Approved","OW473"
"2023-04-04 04:00",7.97769929392219,"Approved","OW473"
"2023-04-04 05:00",8.00369638654299,"Approved","OW473"
"2023-04-04 06:00",8.02169347916378,"Approved","OW473"
"2023-04-04 07:00",8.02569057178458,"Approved","OW473"
"2023-04-04 08:00",8.01468766440537,"Approved","OW473"
"2023-04-04 09:00",7.99368475702617,"Approved","OW473"
"2023-04-04 10:00",7.96268184964696,"Approved","OW473"
"2023-04-04 11:00",7.93267894226776,"Approved","OW473"
"2023-04-04 12:00",7.90967603488855,"Approved","OW473"
"2023-04-04 13:00",7.89867312750935,"Approved","OW473"
"2023-04-04 14:00",7.90467022013014,"Approved","OW473"
"2023-04-04 15:00",7.92266731275094,"Approved","OW473"
"2023-04-04 16:00",7.94966440537173,"Approved","OW473"
"2023-04-04 17:00",7.98066149799252,"Approved","OW473"
"2023-04-04 18:00",8.00865859061332,"Approved","OW473"
"2023-04-04 19:00",8.02465568323411,"Approved","OW473"
"2023-04-04 20:00",8.02565277585491,"Approved","OW473"
"2023-04-04 21:00",8.0146498684757,"Approved","OW473"
"2023-04-04 22:00",7.9946469610965,"Approved","OW473"
"2023-04-04 23:00",7.97064405371729,"Approved","OW473"
"2023-04-05 00:00",7.95064114633809,"Approved","OW473"
"2023-04-05 01:00",7.94163823895888,"Approved","OW473"
"2023-04-05 02:00",7.94663533157968,"Approved","OW473"
"2023-04-05 03:00",7.96363242420047,"Approved","OW473"
"2023-04-05 04:00",7.98962951682126,"Approved","OW473"
"2023-04-05 05:00",8.01962660944206,"Approved","OW473"
"2023-04-05 06:00",8.04462370206285,"Approved","OW473"
"2023-04-05 07:00",8.05762079468365,"Approved","OW473"
"2023-04-05 08:00",8.05461788730445,"Approved","OW473"
"2023-04-05 09:00",8.03761497992524,"Approved","OW473"
"2023-04-05 10:00",8.01161207254603,"Approved","OW473"
"2023-04-05 11:00",7.97960916516683,"Approved","OW473"
"2023-04-05 12:00",7.95260625778762,"Approved","OW473"
"2023-04-05 13:00",7.93560335040842,"Approved","OW473"
"2023-04-05 14:00",7.93560044302921,"Approved","OW473"
"2023-04-05 15:00",7.95059753565001,"Approved","OW473"
"2023-04-05 16:00",7.9755946282708,"Approved","OW473"
"2023-04-05 17:00",8.0075917208916,"Approved","OW473"
"2023-04-05 18:00",8.03858881351239,"Approved","OW473"
"2023-04-05 19:00",8.06158590613319,"Approved","OW473"
"2023-04-05 20:00",8.06758299875398,"Approved","OW473"
"2023-04-05 21:00",8.05858009137478,"Approved","OW473"
"2023-04-05 22:00",8.03657718399557,"Approved","OW473"
"2023-04-05 23:00",8.00657427661637,"Approved","OW473"
"2023-04-06 00:00",7.97557136923716,"Approved","OW473"
"2023-04-06 01:00",7.95356846185795,"Approved","OW473"
"2023-04-06 02:00",7.94456555447875,"Approved","OW473"
"2023-04-06 03:00",7.94956264709954,"Approved","OW473"
"2023-04-06 04:00",7.96755973972034,"Approved","OW473"
"2023-04-06 05:00",7.99255683234113,"Approved","OW473"
"2023-04-06 06:00",8.01955392496193,"Approved","OW473"
"2023-04-06 07:00",8.03855101758272,"Approved","OW473"
"2023-04-06 08:00",8.04354811020352,"Approved","OW473"
"2023-04-06 09:00",8.03154520282431,"Approved","OW473"
"2023-04-06 10:00",8.00854229544511,"Approved","OW473"
"2023-04-06 11:00",7.9775393880659,"Approved","OW473"
"2023-04-06 12:00",7.9465364806867,"Approved","OW473"
"2023-04-06 13:00",7.92453357330749,"Approved","OW473"
"2023-04-06 14:00",7.91753066592829,"Approved","OW473"
"2023-04-06 15:00",7.92852775854908,"Approved","OW473"
"2023-04-06 16:00",7.94952485116987,"Approved","OW473"
"2023-04-06 17:00",7.98152194379067,"Approved","OW473"
"2023-04-06 18:00",8.01651903641146,"Approved","OW473"
"2023-04-06 19:00",8.04451612903226,"Approved","OW473"
"2023-04-06 20:00",8.06051322165305,"Approved","OW473"
"2023-04-06 21:00",8.05651031427385,"Approved","OW473"
"2023-04-06 22:00",8.03750740689464,"Approved","OW473"
"2023-04-06 23:00",8.00750449951544,"Approved","OW473"
"2023-04-07 00:00",7.97050159213623,"Approved","OW473"
"2023-04-07 01:00",7.93849868475703,"Approved","OW473"
"2023-04-07 02:00",7.91849577737782,"Approved","OW473"
"2023-04-07 03:00",7.91349286999862,"Approved","OW473"
"2023-04-07 04:00",7.92248996261941,"Approved","OW473"
"2023-04-07 05:00",7.94148705524021,"Approved","OW473"
"2023-04-07 06:00",7.965484147861,"Approved","OW473"
"2023-04-07 07:00",7.98848124048179,"Approved","OW473"
"2023-04-07 08:00",8.00247833310259,"Approved","OW473"
"2023-04-07 09:00",8.00147542572338,"Approved","OW473"
"2023-04-07 10:00",7.98747251834418,"Approved","OW473"
"2023-04-07 11:00",7.96746961096497,"Approved","OW473"
"2023-04-07 12:00",7.94346670358577,"Approved","OW473"
"2023-04-07 13:00",7.92346379620656,"Approved","OW473"
"2023-04-07 14:00",7.91746088882736,"Approved","OW473"
"2023-04-07 15:00",7.92845798144815,"Approved","OW473"
"2023-04-07 16:00",7.95145507406895,"Approved","OW473"
"2023-04-07 17:00",7.98645216668974,"Approved","OW473"
"2023-04-07 18:00",8.02844925931054,"Approved","OW473"
"2023-04-07 19:00",8.06744635193133,"Approved","OW473"
"2023-04-07 20:00",8.09644344455213,"Approved","OW473"
"2023-04-07 21:00",8.10444053717292,"Approved","OW473"
"2023-04-07 22:00",8.09343762979372,"Approved","OW473"
"2023-04-07 23:00",8.06943472241451,"Approved","OW473"
"2023-04-08 00:00",8.0344318150353,"Approved","OW473"
"2023-04-08 01:00",7.9974289076561,"Approved","OW473"
"2023-04-08 02:00",7.96642600027689,"Approved","OW473"
"2023-04-08 03:00",7.95042309289769,"Approved","OW473"
"2023-04-08 04:00",7.95142018551848,"Approved","OW473"
"2023-04-08 05:00",7.96241727813928,"Approved","OW473"
"2023-04-08 06:00",7.98341437076007,"Approved","OW473"
"2023-04-08 07:00",8.00441146338087,"Approved","OW473"
"2023-04-08 08:00",8.02340855600166,"Approved","OW473"
"2023-04-08 09:00",8.03040564862246,"Approved","OW473"
"2023-04-08 10:00",8.02240274124325,"Approved","OW473"
"2023-04-08 11:00",8.00539983386405,"Approved","OW473"
"2023-04-08 12:00",7.98339692648484,"Approved","OW473"
"2023-04-08 13:00",7.95839401910563,"Approved","OW473"
"2023-04-08 14:00",7.94539111172643,"Approved","OW473"
"2023-04-08 15:00",7.94838820434722,"Approved","OW473"
"2023-04-08 16:00",7.96838529696802,"Approved","OW473"
"2023-04-08 17:00",7.99738238958881,"Approved","OW473"
"2023-04-08 18:00",8.03737948220961,"Approved","OW473"
"2023-04-08 19:00",8.0803765748304,"Approved","OW473"
"2023-04-08 20:00",8.1133736674512,"Approved","OW473"
"2023-04-08 21:00",8.13437076007199,"Approved","OW473"
"2023-04-08 22:00",8.13436785269279,"Approved","OW473"
"2023-04-08 23:00",8.11736494531358,"Approved","OW473"
"2023-04-09 00:00",8.08836203793438,"Approved","OW473"
"2023-04-09 01:00",8.04835913055517,"Approved","OW473"
"2023-04-09 02:00",8.01135622317597,"Approved","OW473"
"2023-04-09 03:00",7.98235331579676,"Approved","OW473"
"2023-04-09 04:00",7.96735040841756,"Approved","OW473"
"2023-04-09 05:00",7.96734750103835,"Approved","OW473"
"2023-04-09 06:00",7.97634459365914,"Approved","OW473"
"2023-04-09 07:00",7.99134168627994,"Approved","OW473"
"2023-04-09 08:00",8.00833877890073,"Approved","OW473"
"2023-04-09 09:00",8.01733587152153,"Approved","OW473"
"2023-04-09 10:00",8.01633296414232,"Approved","OW473"
"2023-04-09 11:00",8.00233005676312,"Approved","OW473"
"2023-04-09 12:00",7.98332714938391,"Approved","OW473"
"2023-04-09 13:00",7.96132424200471,"Approved","OW473"
"2023-04-09 14:00",7.9443213346255,"Approved","OW473"
"2023-04-09 15:00",7.9403184272463,"Approved","OW473"
"2023-04-09 16:00",7.95231551986709,"Approved","OW473"
"2023-04-09 17:00",7.97431261248789,"Approved","OW473"
"2023-04-09 18:00",8.00730970510868,"Approved","OW473"
"2023-04-09 19:00",8.04730679772947,"Approved","OW473"
"2023-04-09 20:00",8.08330389035027,"Approved","OW473"
"2023-04-09 21:00",8.11030098297107,"Approved","OW473"
"2023-04-09 22:00",8.12029807559186,"Approved","OW473"
"2023-04-09 23:00",8.11129516821265,"Approved","OW473"
"2023-04-10 00:00",8.09029226083345,"Approved","OW473"
"2023-04-10 01:00",8.06128935345424,"Approved","OW473"
"2023-04-10 02:00",8.02428644607504,"Approved","OW473"
"2023-04-10 03:00",7.99228353869583,"Approved","OW473"
"2023-04-10 04:00",7.97128063131663,"Approved","OW473"
"2023-04-10 05:00",7.96427772393742,"Approved","OW473"
"2023-04-10 06:00",7.96827481655822,"Approved","OW473"
"2023-04-10 07:00",7.98027190917901,"Approved","OW473"
"2023-04-10 08:00",7.99726900179981,"Approved","OW473"
"2023-04-10 09:00",8.0122660944206,"Approved","OW473"
"2023-04-10 10:00",8.0192631870414,"Approved","OW473"
"2023-04-10 11:00",8.01626027966219,"Approved","OW473"
"2023-04-10 12:00",8.00325737228299,"Approved","OW473"
"2023-04-10 13:00",7.98825446490378,"Approved","OW473"
"2023-04-10 14:00",7.97125155752457,"Approved","OW473"
"2023-04-10 15:00",7.96324865014537,"Approved","OW473"
"2023-04-10 16:00",7.96624574276616,"Approved","OW473"
"2023-04-10 17:00",7.98424283538696,"Approved","OW473"
"2023-04-10 18:00",8.01323992800775,"Approved","OW473"
"2023-04-10 19:00",8.05123702062855,"Approved","OW473"
"2023-04-10 20:00",8.09023411324934,"Approved","OW473"
"2023-04-10 21:00",8.12423120587014,"Approved","OW473"
"2023-04-10 22:00",8.14722829849093,"Approved","OW473"
"2023-04-10 23:00",8.14922539111173,"Approved","OW473"
"2023-04-11 00:00",8.13422248373252,"Approved","OW473"
"2023-04-11 01:00",8.10521957635332,"Approved","OW473"
"2023-04-11 02:00",8.06521666897411,"Approved","OW473"
"2023-04-11 03:00",8.02221376159491,"Approved","OW473"
"2023-04-11 04:00",7.9842108542157,"Approved","OW473"
"2023-04-11 05:00",7.95620794683649,"Approved","OW473"
"2023-04-11 06:00",7.94020503945729,"Approved","OW473"
"2023-04-11 07:00",7.93620213207808,"Approved","OW473"
"2023-04-11 08:00",7.94019922469888,"Approved","OW473"
"2023-04-11 09:00",7.95019631731967,"Approved","OW473"
"2023-04-11 10:00",7.95719340994047,"Approved","OW473"
"2023-04-11 11:00",7.96119050256126,"Approved","OW473"
"2023-04-11 12:00",7.95618759518206,"Approved","OW473"
"2023-04-11 13:00",7.94618468780285,"Approved","OW473"
"2023-04-11 14:00",7.93518178042365,"Approved","OW473"
"2023-04-11 15:00",7.92617887304444,"Approved","OW473"
"2023-04-11 16:00",7.92617596566524,"Approved","OW473"
"2023-04-11 17:00",7.94017305828603,"Approved","OW473"
"2023-04-11 18:00",7.96617015090683,"Approved","OW473"
"2023-04-11 19:00",8.00116724352762,"Approved","OW473"
"2023-04-11 20:00",8.04016433614841,"Approved","OW473"
"2023-04-11 21:00",8.07916142876921,"Approved","OW473"
"2023-04-11 22:00",8.11315852139,"Approved","OW473"
"2023-04-11 23:00",8.1331556140108,"Approved","OW473"
"2023-04-12 00:00",8.13415270663159,"Approved","OW473"
"2023-04-12 01:00",8.11914979925239,"Approved","OW473"
"2023-04-12 02:00",8.09214689187318,"Approved","OW473"
"2023-04-12 03:00",8.05714398449398,"Approved","OW473"
"2023-04-12 04:00",8.01914107711477,"Approved","OW473"
"2023-04-12 05:00",7.98513816973557,"Approved","OW473"
"2023-04-12 06:00",7.95613526235636,"Approved","OW473"
"2023-04-12 07:00",7.94013235497716,"Approved","OW473"
"2023-04-12 08:00",7.93412944759795,"Approved","OW473"
"2023-04-12 09:00",7.93412654021875,"Approved","OW473"
"2023-04-12 10:00",7.94112363283954,"Approved","OW473"
"2023-04-12 11:00",7.94812072546033,"Approved","OW473"
"2023-04-12 12:00",7.95311781808113,"Approved","OW473"
"2023-04-12 13:00",7.95211491070192,"Approved","OW473"
"2023-04-12 14:00",7.94711200332272,"Approved","OW473"
"2023-04-12 15:00",7.94110909594351,"Approved","OW473"
"2023-04-12 16:00",7.93910618856431,"Approved","OW473"
"2023-04-12 17:00",7.9421032811851,"Approved","OW473"
"2023-04-12 18:00",7.9551003738059,"Approved","OW473"
"2023-04-12 19:00",7.97709746642669,"Approved","OW473"
"2023-04-12 20:00",8.00509455904749,"Approved","OW473"
"2023-04-12 21:00",8.03809165166828,"Approved","OW473"
"2023-04-12 22:00",8.07108874428908,"Approved","OW473"
"2023-04-12 23:00",8.09708583690987,"Approved","OW473"
"2023-04-13 00:00",8.11208292953067,"Approved","OW473"
"2023-04-13 01:00",8.10808002215146,"Approved","OW473"
"2023-04-13 02:00",8.09307711477226,"Approved","OW473"
"2023-04-13 03:00",8.06407420739305,"Approved","OW473"
"2023-04-13 04:00",8.02907130001384,"Approved","OW473"
"2023-04-13 05:00",7.99006839263464,"Approved","OW473"
"2023-04-13 06:00",7.95506548525543,"Approved","OW473"
"2023-04-13 07:00",7.92506257787623,"Approved","OW473"
"2023-04-13 08:00",7.90605967049702,"Approved","OW473"
"2023-04-13 09:00",7.89805676311782,"Approved","OW473"
"2023-04-13 10:00",7.89805385573861,"Approved","OW473"
"2023-04-13 11:00",7.90505094835941,"Approved","OW473"
"2023-04-13 12:00",7.9130480409802,"Approved","OW473"
"2023-04-13 13:00",7.920045133601,"Approved","OW473"
"2023-04-13 14:00",7.92404222622179,"Approved","OW473"
"2023-04-13 15:00",7.92303931884259,"Approved","OW473"
"2023-04-13 16:00",7.92103641146338,"Approved","OW473"
"2023-04-13 17:00",7.92103350408418,"Approved","OW473"
"2023-04-13 18:00",7.92103059670497,"Approved","OW473"
"2023-04-13 19:00",7.93102768932576,"Approved","OW473"
"2023-04-13 20:00",7.94802478194656,"Approved","OW473"
"2023-04-13 21:00",7.97102187456735,"Approved","OW473"
"2023-04-13 22:00",8.00001896718815,"Approved","OW473"
"2023-04-13 23:00",8.02901605980894,"Approved","OW473"
"2023-04-14 00:00",8.05401315242974,"Approved","OW473"
"2023-04-14 01:00",8.06901024505053,"Approved","OW473"
"2023-04-14 02:00",8.07000733767133,"Approved","OW473"
"2023-04-14 03:00",8.05700443029212,"Approved","OW473"
"2023-04-14 04:00",8.03300152291292,"Approved","OW473"
"2023-04-14 05:00",7.99999861553371,"Approved","OW473"
"2023-04-14 06:00",7.96199570815451,"Approved","OW473"
"2023-04-14 07:00",7.9249928007753,"Approved","OW473"
"2023-04-14 08:00",7.8939898933961,"Approved","OW473"
"2023-04-14 09:00",7.87398698601689,"Approved","OW473"
"2023-04-14 10:00",7.86498407863769,"Approved","OW473"
"2023-04-14 11:00",7.86598117125848,"Approved","OW473"
"2023-04-14 12:00",7.87397826387928,"Approved","OW473"
"2023-04-14 13:00",7.88797535650007,"Approved","OW473"
"2023-04-14 14:00",7.89997244912086,"Approved","OW473"
"2023-04-14 15:00",7.91096954174166,"Approved","OW473"
"2023-04-14 16:00",7.91596663436245,"Approved","OW473"
"2023-04-14 17:00",7.91496372698325,"Approved","OW473"
"2023-04-14 18:00",7.91296081960404,"Approved","OW473"
"2023-04-14 19:00",7.91195791222484,"Approved","OW473"
"2023-04-14 20:00",7.91495500484563,"Approved","OW473"
"2023-04-14 21:00",7.92595209746643,"Approved","OW473"
"2023-04-14 22:00",7.94594919008722,"Approved","OW473"
"2023-04-14 23:00",7.97094628270802,"Approved","OW473"
"2023-04-15 00:00",7.99794337532881,"Approved","OW473"
"2023-04-15 01:00",8.02394046794961,"Approved","OW473"
"2023-04-15 02:00",8.0419375605704,"Approved","OW473"
"2023-04-15 03:00",8.04693465319119,"Approved","OW473"
"2023-04-15 04:00",8.03793174581199,"Approved","OW473"
"2023-04-15 05:00",8.01592883843279,"Approved","OW473"
"2023-04-15 06:00",7.98492593105358,"Approved","OW473"
"2023-04-15 07:00",7.94392302367437,"Approved","OW473"
"2023-04-15 08:00",7.90592011629517,"Approved","OW473"
"2023-04-15 09:00",7.87291720891596,"Approved","OW473"
"2023-04-15 10:00",7.85091430153676,"Approved","OW473"
"2023-04-15 11:00",7.84291139415755,"Approved","OW473"
"2023-04-15 12:00",7.84590848677835,"Approved","OW473"
"2023-04-15 13:00",7.85990557939914,"Approved","OW473"
"2023-04-15 14:00",7.87890267201994,"Approved","OW473"
"2023-04-15 15:00",7.89789976464073,"Approved","OW473"
"2023-04-15 16:00",7.91189685726153,"Approved","OW473"
"2023-04-15 17:00",7.91789394988232,"Approved","OW473"
"2023-04-15 18:00",7.91489104250311,"Approved","OW473"
"2023-04-15 19:00",7.90888813512391,"Approved","OW473"